NIGCOMSAT 1R

Last updated on Tue Sep 22 2026 00:03:12 GMT+0000 (Coordinated Universal Time)

1 38014U 11077A 26264.21242946 .00000141 00000+0 00000+0 0 9996 2 38014 0.0414 237.4413 0002687 101.6239 140.0354 1.00270553 53925
UTC large
Height (km)
Speed (km/s)
/
Latitude / Longitude
Inclination (degrees)
Orbital Period (minutes)
Azimuth
Elevation
Range (km)
Doppler Factor

Next 0 passes for location: London (51.5072 / 0.1276)

No passes found over London.
NIGCOMSAT 1R